Regional Weather Roundup
Issued by NWS Sterling, VA

Home | Current Version | Previous Version | Text Only | Print | Product List | Glossary Off
Versions: 1 2 3 4 5 6 7 8 9 10 11 12 13 14 15 16 17 18 19 20 21 22 23 24 25 26 27 28 29 30 31 32 33 34 35 36 37 38 39 40 41 42 43 44 45 46 47 48 49 50

000
ASUS41 KLWX 260111
RWRLWX

REGIONAL WEATHER ROUNDUP
NATIONAL WEATHER SERVICE BALTIMORE MD/WASHINGTON DC
900 PM EDT TUE APR 25 2017

Note: "FAIR" indicates few or no clouds below 12,000 feet
with no significant weather and/or obstructions to visibility.
 TC=TEMPERATURE CELSIUS

 * =Non NWS site. Station does not report precipitation (e.g. rain,
    snow, etc.), thunder, or fog.

DCZ001-MDZ009-015-VAZ040>042-051-053>054-260200-
WASHINGTON METRO

CITY           SKY/WX    TMP DP  RH WIND       PRES   REMARKS
WASHINGTON NAT CLOUDY    59  57  93 NE12      29.73S
DULLES         CLOUDY    58  55  90 N8        29.75R
ANDREWS AFB    DRIZZLE   57  55  94 NE8       29.72R
FT BELVOIR     CLOUDY    59  56  90 CALM      29.73R
QUANTICO       CLOUDY    60  59  96 NE7       29.73S
COLLEGE PARK*  CLOUDY    57  55  94 NE5       29.73S
LEESBURG*      CLOUDY    59  59 100 N5        29.77R FOG
MANASSAS*        N/A     59  56  89 N8        29.75R

$$

MDZ006>007-011-014-260200-
BALTIMORE METRO

CITY           SKY/WX    TMP DP  RH WIND       PRES   REMARKS
BWI AIRPORT    DRIZZLE   57  57 100 NE12      29.74R FOG
MD SCIENCE CTR   N/A     59  55  87 MISG      29.75R
MARTIN STATE   CLOUDY    57  57 100 NE6       29.76S
ANNAPOLIS      LGT RAIN  59  57  93 NE9       29.73R
FORT MEADE*    CLOUDY    55  54  94 NE8       29.76S

$$

MDZ012-015-019>023-260200-
MARYLAND EASTERN SHORE

CITY           SKY/WX    TMP DP  RH WIND       PRES   REMARKS
OCEAN CITY     CLOUDY    59  59 100 NE7       29.66R FOG
SALISBURY      CLOUDY    63  63 100 NE8       29.66R
BAY BRIDGE AP* RAIN      57  55  94 N6        29.73R FOG
CAMBRIDGE*     CLOUDY    59  59 100 NE9       29.69R FOG
EASTON*        CLOUDY    59  57  94 NE15G22   29.74R

$$

MDZ017>025-260200-
SOUTHERN MARYLAND

CITY           SKY/WX    TMP DP  RH WIND       PRES   REMARKS
PATUXENT RIVER CLOUDY    60  60 100 N12       29.68R
ST INIGOES     LGT RAIN  61  59  93 VRB6      29.67R
LEONARDTOWN*   CLOUDY    59  57  94 N3        29.70S

$$

MDZ003>005-260200-
NORTH CENTRAL MARYLAND

CITY           SKY/WX    TMP DP  RH WIND       PRES   REMARKS
FREDERICK*     NOT AVBL
HAGERSTOWN APT CLOUDY    57  56  96 N6        29.78S FOG
WESTMINSTER*   CLOUDY    57  55  94 E9        29.76S

$$

MDZ501>502-260200-
WESTERN MARYLAND

CITY           SKY/WX    TMP DP  RH WIND       PRES   REMARKS
OAKLAND*       CLOUDY    46  46 100 E6        29.81S FOG
CUMBERLAND*    CLOUDY    55  55 100 CALM      29.85S

$$

VAZ025>031-260200-
SHENANDOAH VALLEY

CITY           SKY/WX    TMP DP  RH WIND       PRES   REMARKS
WINCHESTER*    DRIZZLE   54  54 100 N6        29.78S
FRONT ROYAL*   CLOUDY    54  54 100 CALM      29.77S
LURAY*         CLOUDY    55  54  94 NE3       29.77S
NEW MARKET*    CLOUDY    55  53  94 CALM      29.78S
STAUNTON*      CLOUDY    54  52  92 N7        29.79F
WAYNESBORO*    CLOUDY    53  53 100 N9        29.77F

$$

WVZ021-048>050-054>055-260200-
EASTERN WEST VIRGINIA PANHANDLE

CITY           SKY/WX    TMP DP  RH WIND       PRES   REMARKS
MARTINSBURG    CLOUDY    56  54  93 N9        29.77S FOG
PETERSBURG*    CLOUDY    56  55  94 NW3       29.81S

$$

VAZ036>039-050-260200-
CENTRAL FOOTHILLS

CITY           SKY/WX    TMP DP  RH WIND       PRES   REMARKS
CHARLOTTESVILL CLOUDY    60  56  86 N3        29.74S
CULPEPER*      CLOUDY    59  58  99 N8        29.75S FOG
ORANGE*        CLOUDY    55  55 100 CALM      29.74R FOG
GORDONSVILLE*  CLOUDY    58  57  99 N6        29.73R
WARRENTON*     CLOUDY    59  56  89 N7        29.74S

$$

VAZ055>057-260200-
NORTH AND CENTRAL PIEDMONT

CITY           SKY/WX    TMP DP  RH WIND       PRES   REMARKS
FREDERICKSBRG* CLOUDY    59  59 100 N9        29.72R
STAFFORD*      CLOUDY    58  58 100 N8        29.77R

$$

NCZ024-NYZ072-PAZ021-071-VAZ022-071-260200-
OTHER REGIONAL OBSERVATIONS

CITY           SKY/WX    TMP DP  RH WIND       PRES   REMARKS
NEW YORK CITY  LGT RAIN  51  51 100 E12G22    29.93F FOG
PHILADELPHIA   CLOUDY    56  54  93 NE16G26   29.79S FOG
PITTSBURGH     CLOUDY    57  55  93 E10       29.80S
ROANOKE        CLOUDY    58  54  86 NE7       29.78R
RICHMOND       DRIZZLE   61  61 100 N12       29.69R FOG
RALEIGH        DRIZZLE   62  60  93 N6        29.71R

$$

ANZ530>537-260200-
MARINE OBSERVATIONS

STATION/POSITION TIME  TEMP    WIND        PRES
                       AIR SEA DIR/SP/G
                 (UTC) (F)     (DEG/KT/KT) (MB)
THOMAS PT LIGHT  0000   57 57   10/ 15/ 16   N/A
BALT KEY BRIDGE  0030   57      40/ 10/ 12 1007.0F
COVE POINT       0030   58     350/ 11/ 14 1005.7S
LEWISETTA        0030   61 61  360/  6/ 10 1004.2S
SOLOMONS ISLAND  0030   60 60  350/  8/ 11   N/A
PINEY POINT      0030           10/  9/ 11   N/A

$$




USA.gov is the U.S. government's official web portal to all federal, state and local government web resources and services.